CW6451 Weather Reports


time (UTC)temp
C
wind
direction
speed
KPH
gust
KPH
rain 1hr
cm
rain 24hr
cm
rain mn
cm
humidity
%
barometer
mb
20260510214539 13 159 4.8 16.1 0.00 0.28 0.00 92 1012.8
20260510213039 14 180 6.4 19.3 0.00 0.28 0.00 89 1013.0
20260510211552 14 179 3.2 14.5 0.00 0.28 0.00 90 1012.8
20260510210044 14 170 4.8 16.1 0.00 0.28 0.00 89 1012.8
20260510204549 15 162 4.8 12.9 0.00 0.33 0.00 87 1012.7
20260510203040 16 184 6.4 16.1 0.00 0.33 0.00 86 1012.8
20260510201538 16 227 6.4 14.5 0.00 0.33 0.00 85 1013.0
20260510200045 16 198 6.4 17.7 0.00 0.33 0.00 85 1013.0
20260510194545 16 159 6.4 16.1 0.00 0.33 0.00 85 1013.0
20260510193042 16 203 6.4 14.5 0.00 0.33 0.00 85 1013.2
20260510191540 16 226 6.4 16.1 0.00 0.33 0.00 84 1013.5
20260510190042 16 200 4.8 14.5 0.00 0.33 0.00 83 1013.4
20260510184539 16 207 3.2 12.9 0.00 0.33 0.00 84 1013.5
20260510183037 15 259 4.8 12.9 0.00 0.33 0.00 90 1013.5
20260510181545 15 200 3.2 16.1 0.00 0.33 0.00 90 1013.6
20260510180046 14 174 3.2 14.5 0.00 0.33 0.00 92 1013.9
20260510174539 14 201 4.8 11.3 0.00 0.33 0.00 92 1014.0
20260510173038 14 234 8.0 16.1 0.00 0.33 0.00 90 1013.9
20260510171546 14 227 4.8 17.7 0.00 0.33 0.00 90 1014.0
20260510170109 15 211 3.2 12.9 0.00 0.33 0.00 91 1013.9
20260510164559 14 147 4.8 11.3 0.00 0.33 0.00 91 1013.7
20260510163043 14 167 4.8 11.3 0.00 0.33 0.00 91 1014.0
20260510161538 15 156 4.8 14.5 0.00 0.33 0.00 90 1014.0
20260510160039 15 157 3.2 14.5 0.00 0.33 0.00 90 1013.9
20260510154537 15 135 4.8 16.1 0.00 0.33 0.00 89 1013.8
20260510153048 15 186 3.2 12.9 0.00 0.33 0.00 92 1013.7
20260510151542 15 209 3.2 12.9 0.00 0.33 0.00 93 1014.0
20260510150043 14 265 1.6 8.0 0.00 0.33 0.00 96 1014.0
20260510144538 13 218 3.2 9.7 0.00 0.36 0.00 96 1014.1
20260510143045 13 192 1.6 6.4 0.00 0.36 0.00 96 1014.2
20260510141548 13 150 4.8 14.5 0.00 0.36 0.00 97 1014.0
20260510140046 13 219 4.8 11.3 0.00 0.36 0.00 99 1014.1
20260510134544 12 223 3.2 14.5 0.00 0.36 0.00 99 1013.9
20260510133042 12 172 3.2 9.7 0.00 0.36 0.00 99 1013.5
20260510131547 12 168 4.8 11.3 0.00 0.36 0.00 100 1013.5
20260510130047 12 143 3.2 8.0 0.00 0.36 0.00 100 1013.3
20260510124558 12 151 3.2 12.9 0.00 0.36 0.00 100 1013.4
20260510123045 12 177 3.2 11.3 0.00 0.36 0.00 100 1013.4
20260510121543 12 237 3.2 8.0 0.00 0.36 0.00 100 1013.6
20260510120043 12 186 1.6 8.0 0.00 0.36 0.00 100 1013.3
20260510114538 12 225 1.6 4.8 0.00 0.36 0.00 100 1013.4
20260510113040 12 0 0.0 3.2 0.00 0.36 0.00 100 1013.5
20260510111544 11 0 0.0 1.6 0.00 0.36 0.00 100 1013.4
20260510110046 11 0 0.0 1.6 0.00 0.36 0.00 100 1013.4
20260510104547 11 0 0.0 3.2 0.00 0.41 0.00 100 1013.1
20260510103040 11 0 0.0 3.2 0.00 0.41 0.00 100 1013.1
20260510101540 11 0 0.0 0.0 0.00 0.41 0.00 100 1013.2
20260510100037 11 0 0.0 3.2 0.00 0.41 0.00 99 1013.1
20260510094537 11 0 0.0 3.2 0.00 0.41 0.00 100 1012.8
20260510093037 11 0 0.0 1.6 0.00 0.41 0.00 100 1012.6
20260510091542 11 0 0.0 1.6 0.00 0.41 0.00 99 1012.5
20260510090045 11 0 0.0 0.0 0.00 0.41 0.00 99 1012.4
20260510084539 11 0 0.0 1.6 0.00 0.41 0.00 99 1012.4
20260510083052 11 0 0.0 3.2 0.00 0.41 0.00 99 1012.3
20260510081538 11 0 0.0 3.2 0.00 0.41 0.00 99 1012.3
20260510080045 11 238 0.0 4.8 0.00 0.41 0.00 99 1012.2
20260510074543 11 190 0.0 4.8 0.00 0.41 0.00 99 1012.3
20260510073040 10 0 0.0 3.2 0.00 0.41 0.00 99 1012.3
20260510071540 10 189 0.0 3.2 0.00 0.41 0.00 99 1012.1
20260510070039 10 161 1.6 8.0 0.00 0.41 0.00 99 1012.0
20260510064540 10 209 1.6 11.3 0.00 0.41 0.00 98 1012.1
20260510063038 10 197 1.6 6.4 0.00 0.41 0.00 98 1012.0
20260510061543 10 237 1.6 6.4 0.00 0.41 0.00 98 1011.9
20260510060042 11 204 1.6 8.0 0.00 0.41 0.00 98 1012.3
20260510054538 11 191 1.6 8.0 0.00 0.41 0.00 98 1012.2
20260510053038 11 182 1.6 9.7 0.00 0.41 0.00 98 1012.1
20260510051537 11 162 3.2 11.3 0.00 0.41 0.00 98 1012.0
20260510050041 11 155 1.6 8.0 0.00 0.41 0.00 98 1012.0
20260510044544 11 229 1.6 9.7 0.00 0.41 0.00 98 1012.1
20260510043040 11 0 1.6 14.5 0.00 0.41 0.00 98 1012.0
20260510041539 11 184 3.2 9.7 0.00 0.41 0.00 97 1012.2
20260510040039 11 165 3.2 6.4 0.00 0.41 0.00 97 1012.3
20260510034548 11 163 0.0 8.0 0.00 0.41 0.41 97 1012.3
20260510033053 10 0 1.6 4.8 0.03 0.41 0.41 97 1012.4
20260510031544 10 168 0.0 6.4 0.03 0.41 0.41 96 1012.3
20260510030043 10 192 1.6 8.0 0.10 0.41 0.41 96 1012.6
20260510024541 10 142 3.2 8.0 0.13 0.41 0.41 96 1012.5
20260510023037 10 146 0.0 8.0 0.10 0.38 0.38 95 1012.4
20260510021546 10 0 1.6 8.0 0.10 0.38 0.38 95 1012.3
20260510020045 11 117 1.6 11.3 0.03 0.30 0.30 94 1012.5
20260510014543 10 0 1.6 12.9 0.00 0.28 0.28 94 1012.7
20260510013040 10 180 1.6 12.9 0.00 0.28 0.28 95 1012.8
20260510011537 10 179 4.8 16.1 0.03 0.28 0.28 95 1012.9
20260510010043 10 161 6.4 16.1 0.03 0.28 0.28 96 1012.9
20260510004546 10 144 4.8 16.1 0.05 0.28 0.28 95 1013.0
20260510003057 10 133 6.4 16.1 0.08 0.28 0.28 95 1013.0
20260510001542 10 142 6.4 16.1 0.05 0.25 0.25 95 1013.1
20260510000042 10 189 4.8 14.5 0.08 0.25 0.25 95 1013.2
20260509234543 11 174 3.2 16.1 0.08 0.23 0.23 94 1013.3
20260509233047 11 204 6.4 16.1 0.05 0.20 0.20 93 1013.6
20260509231543 11 171 6.4 22.5 0.05 0.20 0.20 92 1013.8
20260509230051 11 207 4.8 17.7 0.03 0.18 0.18 93 1013.7
20260509224553 11 202 8.0 14.5 0.00 0.15 0.15 93 1013.6
20260509223047 11 234 6.4 20.9 0.03 0.15 0.15 93 1013.8
20260509221541 11 208 4.8 19.3 0.03 0.15 0.15 94 1013.7
20260509220038 11 225 4.8 17.7 0.03 0.15 0.15 94 1013.6